TimeCET,TemperatureF,Dew PointF,Humidity,Sea Level PressureIn,VisibilityMPH,Wind Direction,Wind SpeedMPH,Gust SpeedMPH,PrecipitationIn,Events,Conditions,WindDirDegrees,DateUTC
12:55 AM,19.4,5.0,54,29.83,-9999.0,SSW,16.1,-,N/A,,Clear,210,2013-03-22 23:55:00
1:00 AM,19,5,39,,6,SSW,16.1,,,,Clear,210,2013-03-23 00:00:00
1:55 AM,19.4,5.0,54,29.80,-9999.0,South,15.0,-,N/A,,Clear,190,2013-03-23 00:55:00
2:55 AM,17.6,5.0,58,29.80,-9999.0,South,16.1,-,N/A,,Clear,180,2013-03-23 01:55:00
3:55 AM,17.6,5.0,58,29.80,-9999.0,South,9.2,-,N/A,,Clear,190,2013-03-23 02:55:00
4:00 AM,18,5,42,,6,South,9.2,,,,Clear,190,2013-03-23 03:00:00
4:55 AM,17.6,3.2,53,29.77,-9999.0,South,13.8,-,N/A,,Clear,190,2013-03-23 03:55:00
5:55 AM,17.6,3.2,53,29.77,6.2,SSW,17.3,-,N/A,,Partly Cloudy,210,2013-03-23 04:55:00
6:55 AM,17.6,6.8,63,29.77,6.2,SSW,15.0,-,N/A,,Partly Cloudy,200,2013-03-23 05:55:00
7:00 AM,17,7,51,,25,SSW,15.0,,,,Scattered Clouds,200,2013-03-23 06:00:00
7:55 AM,15.8,10.4,79,29.74,6.2,SSW,18.4,-,N/A,,Scattered Clouds,210,2013-03-23 06:55:00
8:55 AM,17.6,14.0,86,29.74,0.2,SW,9.2,-,N/A,Fog,Light Freezing Fog,230,2013-03-23 07:55:00
9:55 AM,19.4,14.0,80,29.74,0.2,SSW,23.0,-,N/A,Fog-Snow,Light Snow,200,2013-03-23 08:55:00
10:00 AM,19,13,70,,0,SSW,23.0,,,Snow,Light Snow,200,2013-03-23 09:00:00
10:55 AM,19.4,14.0,80,29.74,0.5,South,19.6,-,N/A,Fog-Snow,Light Snow,190,2013-03-23 09:55:00
11:55 AM,19.4,14.0,80,29.74,0.5,SSW,19.6,-,N/A,Fog-Snow,Light Snow,200,2013-03-23 10:55:00
1:00 PM,20,13,66,,0,SSW,19.6,,,Snow,Light Snow,200,2013-03-23 12:00:00
1:55 PM,21.2,14.0,74,29.74,0.5,SSW,20.7,-,N/A,Fog-Snow,Light Snow,200,2013-03-23 12:55:00
2:55 PM,21.2,14.0,74,29.74,0.5,South,16.1,-,N/A,Fog-Snow,Light Snow,190,2013-03-23 13:55:00
3:55 PM,21.2,15.8,80,29.71,0.5,SSW,13.8,-,N/A,Fog-Snow,Light Snow,200,2013-03-23 14:55:00
4:00 PM,21,15,70,,0,SSW,13.8,,,Snow,Light Snow,200,2013-03-23 15:00:00
4:55 PM,21.2,14.0,74,29.71,0.5,South,12.7,-,N/A,Fog-Snow,Light Snow,190,2013-03-23 15:55:00
5:55 PM,19.4,14.0,80,29.71,0.5,South,10.4,-,N/A,Fog-Snow,Light Snow,190,2013-03-23 16:55:00
6:55 PM,19.4,12.2,74,29.71,0.2,South,8.1,-,N/A,Fog-Snow,Light Snow,190,2013-03-23 17:55:00
7:00 PM,19,13,67,,0,South,8.1,,,Snow,Light Snow,190,2013-03-23 18:00:00
7:55 PM,17.6,14.0,86,29.68,0.2,SSW,8.1,-,N/A,Fog-Snow,Light Snow,200,2013-03-23 18:55:00
8:55 PM,15.8,14.0,93,29.71,0.2,South,16.1,-,N/A,Fog-Snow,Light Snow,180,2013-03-23 19:55:00
10:00 PM,15,15,99,,0,South,16.1,,,Snow,Light Snow,190,2013-03-23 21:00:00
10:55 PM,14.0,14.0,100,29.68,0.1,South,18.4,-,N/A,Fog-Snow,Light Snow,190,2013-03-23 21:55:00
11:55 PM,14.0,14.0,100,29.68,0.1,South,9.2,-,N/A,Fog-Snow,Light Snow,190,2013-03-23 22:55:00